Time,TemperatureF,DewpointF,PressureIn,WindDirection,WindDirectionDegrees,WindSpeedMPH,WindSpeedGustMPH,Humidity,HourlyPrecipIn,Conditions,Clouds,dailyrainin,SoftwareType,DateUTC
2013-09-23 00:12:00,54.0,52.0,30.01,ENE,61,0.0,0.0,93,0.00,,,0.00,,2013-09-23 05:12:00,
2013-09-23 00:22:00,54.0,52.0,30.01,ENE,61,0.0,0.0,92,0.00,,,0.00,,2013-09-23 05:22:00,
2013-09-23 00:43:00,54.0,52.0,30.01,ENE,61,0.0,0.0,92,0.00,,,0.00,,2013-09-23 05:43:00,
2013-09-23 00:53:00,53.0,51.0,30.01,ENE,61,0.0,0.0,92,0.00,,,0.00,,2013-09-23 05:53:00,
2013-09-23 01:13:00,53.0,51.0,30.01,ENE,61,0.0,0.0,92,0.00,,,0.00,,2013-09-23 06:13:00,
2013-09-23 01:22:00,53.0,51.0,30.01,ENE,61,0.0,0.0,93,0.00,,,0.00,,2013-09-23 06:22:00,
2013-09-23 01:52:00,52.0,50.0,30.01,ENE,61,0.0,0.0,92,0.00,,,0.00,,2013-09-23 06:52:00,
2013-09-23 02:12:00,52.0,50.0,30.01,ENE,61,0.0,0.0,92,0.00,,,0.00,,2013-09-23 07:12:00,
2013-09-23 02:22:00,51.0,49.0,30.01,ENE,61,0.0,0.0,93,0.00,,,0.00,,2013-09-23 07:22:00,
2013-09-23 02:42:00,51.0,49.0,30.01,ENE,61,0.0,0.0,94,0.00,,,0.00,,2013-09-23 07:42:00,
2013-09-23 02:52:00,51.0,49.0,30.01,ENE,61,0.0,0.0,94,0.00,,,0.00,,2013-09-23 07:52:00,
2013-09-23 03:11:00,51.0,49.0,30.01,ENE,61,0.0,0.0,94,0.00,,,0.00,,2013-09-23 08:11:00,
2013-09-23 03:23:00,52.0,51.0,30.01,ENE,61,0.0,0.0,95,0.00,,,0.00,,2013-09-23 08:23:00,
2013-09-23 03:42:00,52.0,50.0,30.01,ENE,61,0.0,0.0,94,0.00,,,0.00,,2013-09-23 08:42:00,
2013-09-23 03:52:00,51.0,49.0,30.01,ENE,61,0.0,0.0,94,0.00,,,0.00,,2013-09-23 08:52:00,
2013-09-23 04:11:00,50.0,48.0,30.01,ENE,61,0.0,0.0,94,0.00,,,0.00,,2013-09-23 09:11:00,
2013-09-23 04:21:00,50.0,48.0,30.01,ENE,61,0.0,0.0,94,0.00,,,0.00,,2013-09-23 09:21:00,
2013-09-23 04:43:00,50.0,49.0,30.02,ENE,61,0.0,0.0,95,0.00,,,0.00,,2013-09-23 09:43:00,
2013-09-23 04:53:00,50.0,49.0,30.02,ENE,61,0.0,0.0,96,0.00,,,0.00,,2013-09-23 09:53:00,
2013-09-23 05:13:00,51.0,50.0,30.02,ENE,61,0.0,0.0,95,0.00,,,0.00,,2013-09-23 10:13:00,
2013-09-23 05:23:00,51.0,50.0,30.02,ENE,61,0.0,0.0,95,0.00,,,0.00,,2013-09-23 10:23:00,
2013-09-23 05:42:00,51.0,50.0,30.02,ENE,61,0.0,0.0,95,0.00,,,0.00,,2013-09-23 10:42:00,
2013-09-23 05:52:00,50.0,49.0,30.03,ENE,61,0.0,0.0,95,0.00,,,0.00,,2013-09-23 10:52:00,
2013-09-23 06:12:00,50.0,49.0,30.03,ENE,61,0.0,0.0,95,0.01,,,0.01,,2013-09-23 11:12:00,
2013-09-23 06:21:00,50.0,49.0,30.04,ENE,61,0.0,0.0,95,0.01,,,0.01,,2013-09-23 11:21:00,
2013-09-23 06:42:00,49.0,48.0,30.05,ENE,61,0.0,0.0,95,0.01,,,0.01,,2013-09-23 11:42:00,
2013-09-23 06:52:00,49.0,48.0,30.05,ENE,61,0.0,0.0,95,0.01,,,0.01,,2013-09-23 11:52:00,
2013-09-23 07:11:00,49.0,48.0,30.06,ENE,61,0.0,0.0,95,0.01,,,0.01,,2013-09-23 12:11:00,
2013-09-23 07:22:00,49.0,48.0,30.06,ENE,61,0.0,0.0,95,0.00,,,0.01,,2013-09-23 12:22:00,
2013-09-23 07:52:00,50.0,49.0,30.07,ENE,61,0.0,0.0,97,0.00,,,0.01,,2013-09-23 12:52:00,
2013-09-23 08:11:00,52.0,51.0,30.07,ENE,61,0.0,0.0,97,0.00,,,0.01,,2013-09-23 13:11:00,
2013-09-23 08:22:00,53.0,52.0,30.08,ENE,78,0.0,0.0,96,0.00,,,0.01,,2013-09-23 13:22:00,
2013-09-23 08:42:00,54.0,52.0,30.08,East,92,0.0,0.0,94,0.00,,,0.01,,2013-09-23 13:42:00,
2013-09-23 08:52:00,55.0,52.0,30.08,ENE,68,0.0,0.0,91,0.00,,,0.01,,2013-09-23 13:52:00,
2013-09-23 09:11:00,57.0,53.0,30.08,ENE,71,0.0,0.0,88,0.00,,,0.01,,2013-09-23 14:11:00,
2013-09-23 09:22:00,58.0,53.0,30.09,ESE,113,0.0,0.0,84,0.00,,,0.01,,2013-09-23 14:22:00,
2013-09-23 09:42:00,59.0,53.0,30.08,SE,144,0.0,0.0,81,0.00,,,0.01,,2013-09-23 14:42:00,
2013-09-23 09:52:00,60.0,53.0,30.08,SSE,147,0.0,0.0,78,0.00,,,0.01,,2013-09-23 14:52:00,
2013-09-23 10:12:00,61.0,54.0,30.08,ENE,77,0.0,0.0,78,0.00,,,0.01,,2013-09-23 15:12:00,
2013-09-23 10:21:00,62.0,53.0,30.08,ESE,123,0.0,0.0,73,0.00,,,0.01,,2013-09-23 15:21:00,
2013-09-23 10:43:00,64.0,54.0,30.08,ESE,117,0.0,0.0,69,0.00,,,0.01,,2013-09-23 15:43:00,
2013-09-23 10:54:00,65.0,53.0,30.08,SSE,167,0.0,0.0,65,0.00,,,0.01,,2013-09-23 15:54:00,
2013-09-23 11:12:00,66.0,53.0,30.08,SSE,159,0.0,0.0,63,0.00,,,0.01,,2013-09-23 16:12:00,
2013-09-23 11:24:00,67.0,53.0,30.08,SE,132,0.0,1.0,60,0.00,,,0.01,,2013-09-23 16:24:00,
2013-09-23 11:53:00,68.0,53.0,30.08,NE,40,0.0,1.0,58,0.00,,,0.01,,2013-09-23 16:53:00,
2013-09-23 12:12:00,68.0,53.0,30.07,NE,39,0.0,0.0,59,0.00,,,0.01,,2013-09-23 17:12:00,
2013-09-23 12:24:00,68.0,54.0,30.07,NE,53,0.0,0.0,60,0.00,,,0.01,,2013-09-23 17:24:00,
2013-09-23 12:42:00,69.0,53.0,30.06,SSW,207,0.0,0.0,57,0.00,,,0.01,,2013-09-23 17:42:00,
2013-09-23 12:52:00,69.0,52.0,30.06,ENE,63,0.0,0.0,55,0.00,,,0.01,,2013-09-23 17:52:00,
2013-09-23 13:12:00,70.0,53.0,30.06,East,94,0.0,0.0,55,0.00,,,0.01,,2013-09-23 18:12:00,
2013-09-23 13:21:00,70.0,52.0,30.05,SE,132,0.0,0.0,53,0.00,,,0.01,,2013-09-23 18:21:00,
2013-09-23 13:52:00,71.0,54.0,30.04,SE,127,0.0,5.0,56,0.00,,,0.01,,2013-09-23 18:52:00,
2013-09-23 14:12:00,71.0,53.0,30.03,East,83,0.0,0.0,53,0.00,,,0.01,,2013-09-23 19:12:00,
2013-09-23 14:22:00,71.0,52.0,30.03,ESE,102,0.0,2.0,51,0.00,,,0.01,,2013-09-23 19:22:00,
2013-09-23 14:33:00,71.0,52.0,30.03,ESE,102,0.0,2.0,51,0.00,,,0.01,,2013-09-23 19:33:00,
2013-09-23 14:42:00,71.0,52.0,30.03,ESE,102,0.0,2.0,51,0.00,,,0.01,,2013-09-23 19:42:00,
2013-09-23 14:53:00,72.0,52.0,30.02,East,93,0.0,0.0,50,0.00,,,0.01,,2013-09-23 19:53:00,
2013-09-23 15:12:00,73.0,54.0,30.01,East,94,0.0,0.0,51,0.00,,,0.01,,2013-09-23 20:12:00,
2013-09-23 15:22:00,73.0,53.0,30.01,East,96,0.0,0.0,50,0.00,,,0.01,,2013-09-23 20:22:00,
2013-09-23 15:52:00,74.0,54.0,30.00,East,85,0.0,0.0,49,0.00,,,0.01,,2013-09-23 20:52:00,
2013-09-23 16:11:00,74.0,54.0,29.99,East,86,0.0,0.0,50,0.00,,,0.01,,2013-09-23 21:11:00,
2013-09-23 16:23:00,74.0,54.0,29.98,East,84,0.0,0.0,50,0.00,,,0.01,,2013-09-23 21:23:00,
2013-09-23 16:44:00,74.0,54.0,29.97,ESE,113,0.0,0.0,49,0.00,,,0.01,,2013-09-23 21:44:00,
2013-09-23 16:54:00,74.0,54.0,29.99,East,97,0.0,0.0,49,0.00,,,0.01,,2013-09-23 21:54:00,
2013-09-23 17:13:00,74.0,55.0,29.99,NE,40,0.0,0.0,51,0.00,,,0.01,,2013-09-23 22:13:00,
2013-09-23 17:24:00,74.0,56.0,29.99,East,80,0.0,0.0,53,0.00,,,0.01,,2013-09-23 22:24:00,
2013-09-23 17:43:00,74.0,54.0,30.00,East,85,0.0,0.0,50,0.00,,,0.01,,2013-09-23 22:43:00,
2013-09-23 17:54:00,73.0,54.0,30.00,East,101,0.0,0.0,51,0.00,,,0.01,,2013-09-23 22:54:00,
2013-09-23 18:12:00,72.0,54.0,30.00,ESE,115,0.0,0.0,53,0.00,,,0.01,,2013-09-23 23:12:00,
2013-09-23 18:22:00,72.0,54.0,29.99,SE,130,0.0,0.0,54,0.00,,,0.01,,2013-09-23 23:22:00,
2013-09-23 18:53:00,70.0,55.0,29.99,East,96,0.0,0.0,58,0.00,,,0.01,,2013-09-23 23:53:00,
2013-09-23 19:12:00,69.0,55.0,30.00,East,101,0.0,0.0,60,0.00,,,0.01,,2013-09-24 00:12:00,
2013-09-23 19:22:00,68.0,56.0,30.00,East,101,0.0,0.0,65,0.00,,,0.01,,2013-09-24 00:22:00,
2013-09-23 19:42:00,66.0,56.0,30.00,East,101,0.0,0.0,71,0.00,,,0.01,,2013-09-24 00:42:00,
2013-09-23 19:52:00,64.0,56.0,30.00,East,101,0.0,0.0,76,0.00,,,0.01,,2013-09-24 00:52:00,
2013-09-23 20:12:00,62.0,55.0,30.00,East,101,0.0,0.0,79,0.00,,,0.01,,2013-09-24 01:12:00,
2013-09-23 20:22:00,60.0,54.0,29.99,East,101,0.0,0.0,82,0.00,,,0.01,,2013-09-24 01:22:00,
2013-09-23 20:43:00,60.0,55.0,30.00,East,101,0.0,0.0,83,0.00,,,0.01,,2013-09-24 01:43:00,
2013-09-23 20:52:00,61.0,55.0,30.00,East,101,0.0,0.0,81,0.00,,,0.01,,2013-09-24 01:52:00,
2013-09-23 21:12:00,60.0,54.0,30.01,East,101,0.0,0.0,81,0.00,,,0.01,,2013-09-24 02:12:00,
2013-09-23 21:22:00,59.0,54.0,30.01,East,101,0.0,0.0,84,0.00,,,0.01,,2013-09-24 02:22:00,
2013-09-23 21:42:00,58.0,54.0,30.01,East,101,0.0,0.0,87,0.00,,,0.01,,2013-09-24 02:42:00,
2013-09-23 21:52:00,57.0,53.0,30.01,East,101,0.0,0.0,87,0.00,,,0.01,,2013-09-24 02:52:00,
2013-09-23 22:12:00,57.0,53.0,30.01,East,101,0.0,0.0,88,0.00,,,0.01,,2013-09-24 03:12:00,
2013-09-23 22:22:00,57.0,53.0,30.01,East,101,0.0,0.0,88,0.00,,,0.01,,2013-09-24 03:22:00,
2013-09-23 22:44:00,58.0,54.0,30.01,East,101,0.0,0.0,87,0.00,,,0.01,,2013-09-24 03:44:00,
2013-09-23 22:54:00,59.0,54.0,30.02,East,101,0.0,0.0,83,0.00,,,0.01,,2013-09-24 03:54:00,
2013-09-23 23:14:00,59.0,54.0,30.01,East,101,0.0,0.0,84,0.00,,,0.01,,2013-09-24 04:14:00,
2013-09-23 23:24:00,59.0,54.0,30.01,East,101,0.0,0.0,84,0.00,,,0.01,,2013-09-24 04:24:00,
2013-09-23 23:44:00,58.0,53.0,30.01,East,101,0.0,0.0,84,0.00,,,0.01,,2013-09-24 04:44:00,
2013-09-23 23:54:00,59.0,54.0,30.01,East,92,0.0,0.0,84,0.00,,,0.01,,2013-09-24 04:54:00,